User: anonymous   Login
Location: Ostrava
(49.8330°N, 18.2830°E)
Time: 16:32:37
(UTC+02:00)
Language:

NOAA 19 - Orbit

View from above orbital plane
View from above orbital plane
View from above satellite
View from above satellite

Ground track
Ground track

The orbit data is extracted from the following two-line orbital elements,

1 33591U 09005A   17204.89896489 +.00000078 +00000-0 +67181-4 0  9992
2 33591 099.0953 172.2515 0014151 164.7795 195.3804 14.12196602435578
Epoch (UTC): 23 July 2017 21:34:30
Eccentricity: 0.0014151
inclination: 99.0953°
perigee height: 841 km
apogee height: 862 km
right ascension of ascending node: 172.2515°
argument of perigee: 164.7795°
revolutions per day: 14.12196602
mean anomaly at epoch: 195.3804°
orbit number at epoch: 43557

The dashed part of the orbit path shows where the satellite is in the earth's shadow,  

DLR